Miscellaneous Local Product
Issued by NWS Hastings, NE

Home | Current Version | Previous Version | Text Only | Print | Product List | Glossary Off
Versions: 1 2 3 4 5 6 7 8 9 10 11 12 13 14 15 16 17 18 19 20 21 22 23 24 25 26 27 28 29 30 31 32 33 34 35 36 37 38 39 40 41 42 43 44 45 46 47 48 49 50

000
AXUS43 KGID 261302
MISGRI

GID CWA HOURLY WEATHER ROUNDUP
NATIONAL WEATHER SERVICE HASTINGS NE
700 AM CST MON JAN 26 2015

NOTE: "FAIR" INDICATES FEW OR NO CLOUDS BELOW 12,000 FEET WITH NO
SIGNIFICANT WEATHER AND/OR OBSTRUCTIONS TO VISIBILITY.

...SOUTH CENTRAL NEBRASKA...

CITY           SKY/WX    TMP DP  RH WIND       PRES   REMARKS
GRAND ISLAND   CLEAR     34  28  79 W13       29.93R WCI  25
HASTINGS       CLEAR     36  28  73 W15       29.93R WCI  27
KEARNEY        CLEAR     39  30  70 W10       29.95S WCI  32
ORD            CLEAR     42  32  67 NW12      29.91S
YORK           CLEAR     30  27  86 W12       29.90S WCI  21
AURORA         CLEAR     32  28  85 W9        29.91S WCI  24
LEXINGTON      CLEAR     36  31  85 NW12      29.99S WCI  27
HOLDREGE       CLEAR     37  30  74 NW9       29.97S WCI  31
HEBRON         CLEAR     31  26  80 W9        29.94F WCI  23

...NEBRASKA PANHANDLE...

CITY           SKY/WX    TMP DP  RH WIND       PRES   REMARKS
CHADRON        CLEAR     43  30  60 W14       30.07S
ALLIANCE       CLEAR     35  30  82 W13       30.07S WCI  26
SCOTTSBLUFF    CLEAR     37  30  75 N9        30.12S WCI  30
SIDNEY         CLEAR     40  28  62 W13       30.13S WCI  32

...WESTERN AND NORTH CENTRAL NEBRASKA...

CITY           SKY/WX    TMP DP  RH WIND       PRES   REMARKS
VALENTINE      CLEAR     34  30  85 W7        29.98R WCI  28
AINSWORTH      CLEAR     38  32  77 W12       29.95R WCI  31
ONEILL         CLEAR     42  35  75 W15       29.88R
BROKEN BOW     CLEAR     43  32  65 NW21      29.95R
IMPERIAL       CLEAR     40  29  64 W13       30.09R WCI  32
NORTH PLATTE   CLEAR     32  29  88 W10       30.03R WCI  24
MCCOOK         CLEAR     40  31  70 W14       30.04R WCI  32

...EASTERN NEBRASKA...

CITY           SKY/WX    TMP DP  RH WIND       PRES   REMARKS
NORFOLK        CLEAR     37  31  78 W15       29.84S WCI  28
SO SIOUX CITY  MOCLDY    33  29  85 W3        29.83F
TEKAMAH        CLEAR     31  27  85 S7        29.86F WCI  24
COLUMBUS       CLEAR     32  25  74 W9        29.89S WCI  24
ALBION         FAIR      32  27  82 W3        29.89R
OMAHA EPPLEY   PTCLDY    28  26  92 S8        29.89F WCI  20
OFFUTT AFB     CLEAR     25  23  94 S5        29.89F WCI  19
MILLARD        CLEAR     29  27  92 SE3       29.89F
LINCOLN        CLEAR     34  28  79 SW5       29.92F WCI  30
NEBRASKA CITY  CLEAR     31  29  94 SW12      29.92F WCI  21
BEATRICE       CLEAR     30  28  90 SW9       29.93F WCI  22
FALLS CITY     CLEAR     24  22  91 SE3       29.96F

...NORTHERN KANSAS...

CITY           SKY/WX    TMP DP  RH WIND       PRES   REMARKS
GOODLAND       CLEAR     40  30  67 W18       30.12R WCI  31
HILL CITY      PTCLDY    44  31  60 NW12      30.03S
NORTON         SUNNY     37  28  70 W13       30.02  WCI  29
PHILLIPSBURG   CLEAR     43  34  70 W13       30.01S
SMITH CENTER   CLEAR     23  19  86 W7        30.00R WCI  15
BELOIT         CLEAR     28  25  86 W5        29.98S WCI  23
HAYS           CLEAR     32  21  64 W3        30.03S
RUSSELL        CLEAR     32  28  85 W12       30.00R WCI  23
CONCORDIA      CLEAR     33  27  78 W10       29.96S WCI  25
SALINA         CLEAR     34  27  75 SW13      30.01R WCI  25
TOPEKA         CLEAR     29  26  89 SW3       30.01F



USA.gov is the U.S. government's official web portal to all federal, state and local government web resources and services.